Weather in Starogladovskaya

Russia / Chechen Republic     43°38′08″N   46°25′06″E
temp.,
°C
wind,
m/s
gust,
m/s
humid.,
%
clouds,
%
prec.,
mm/h
press.,
hPa
HPBL,
m
26 february, fri
fri2600:00−4wsw3678100 0.0 1030188
03:00−2wsw4978100 0.0 1028197
06:00+1wsw51583100 0.0 1027387
09:00+3w61576100 0.0 1026675
12:00+4w61475100 0.2 1025564
15:00+6w61373100 0.4 1024504
18:00+4wsw51082100 0.0 1024203
21:00+3wsw41082100 0.0 1024193
27 february, sat
sat2700:00+3w4980100 0.3 1023182
03:00+3w3684100 0.6 1022102
06:00+3wsw338294 0.1 102143
09:00+6wnw117597 0.2 102168
12:00+7ese227599 0.0 101995
15:00+11sse125974 0.0 1017546
18:00+8se22700 0.0 101723
21:00+6sse346822 0.0 101743
28 february, sun
sun2800:00+5sse22690 0.0 101522
03:00+5s22740 0.0 101422
06:00+5nw228259 0.0 101422
09:00+8nne467766 0.0 1014337
12:00+8nnw588048 0.0 1014588
15:00+6nw368974 0.3 1015465
18:00+6nw4694100 0.6 1016337
21:00+5nw5989100 0.7 1018483
1 march, mon
mon100:00+4wnw4893100 0.1 1019541
03:00+3wnw4891100 0.1 1020321
06:00+2wnw5993100 0.0 1022375
09:00+3wnw5787100 0.1 1024535
12:00+6nw4666100 0.1 10241030
15:00+6nw3556100 0.1 10241260
18:00+4nnw2366100 0.0 102659
21:00+2ene2275100 0.0 102725
2 march, tue
tue200:00+1ene1278100 0.0 102822
03:00+1ene1180100 0.0 102822
06:000ne228491 0.0 102926
09:00+2ne237296 0.0 1030352
12:00+4nne2169100 0.0 1029722
15:00+5ne1064100 0.0 1027783
18:00+4wnw1167100 0.0 102772
21:00+4nw1268100 0.0 102741